Weather in Hillerød

Denmark     55°55′40″N   12°18′11″E
temp.,
°C
wind,
m/s
gust,
m/s
humid.,
%
clouds,
%
prec.,
mm/h
press.,
hPa
HPBL,
m
9 march, tue
tue901:00−1s226099 0.0 102251
04:00−2ssw337160 0.0 102197
07:00−2ssw336833 0.0 1021109
10:00+2ssw454934 0.0 1020482
13:00+4wsw234058 0.0 1020929
16:00+3nw235391 0.0 1019309
19:00−1ene117064 0.0 102021
22:00−1sse22679 0.0 102031
10 march, wed
wed1001:00−1s12695 0.0 102030
04:00−1s12700 0.0 102035
07:00−1sse22660 0.0 102038
10:00+3sse46500 0.0 1019501
13:00+4sse674730 0.0 1019888
16:00+3sse61048100 0.0 1017639
19:00+1se71358100 0.0 1016448
22:00+2sse91655100 0.0 1014575
11 march, thu
thu1101:00+2sse91665100 0.0 1010664
04:00+2sse111796100 0.6 1005749
07:00+2sse121996100 3.4 1000743
10:00+4sse132191100 3.8 995707
13:00+6s101791100 5.4 993698
16:00+8sw9167175 1.8 9901222
19:00+5wsw9168287 2.1 991884
22:00+4sw81683100 0.0 993678
12 march, fri
fri1201:00+3sw8168467 0.0 993607
04:00+3sw9158630 0.0 994552
07:00+3sw9178545 0.0 996751
10:00+5wsw111678100 0.2 9981192
13:00+5wsw111673100 0.3 9991428
16:00+5sw91470100 0.2 9991306
19:00+4ssw6128399 0.2 998484
22:00+4ssw5109495 0.9 996574
13 march, sat
sat1301:00+4ssw7128797 2.8 994725
04:00+2w91396100 0.5 993755
07:00+3wsw8139198 0.6 995620
10:00+5sw8127634 0.0 996938
13:00+6ssw7117344 0.1 9941012
16:00+4s71193100 1.6 991572
19:00+5ssw71291100 1.8 988644
22:00+4ssw71489100 1.4 987794